Find Starlink 30418

NORAD ID: 57829 Int'l Des: 2023-138 Owner: SPXS Country: US Constellation: starlink operational
LEOCIRCULAR

实时位置

正在加载3D地球...

关于 Starlink 30418

正在加载描述...

即将过境

Passes for default location (London). Set your location on the main map for personalized predictions.

高度历史

Loading altitude history...

两行轨道根数

1 57829U 23138X 26126.44602199 .00000002 00000-0 96059-5 0 9996
2 57829 43.0046 267.8085 0001290 206.1106 153.9681 15.27594693147404
Epoch: May 6, 2026 • Age: 11 hours

当前状态

高度 493.8 km
速度 7.62 km/s
星下点 -37.00°S, 25.75°E
发射日期 Sep 9, 2023
运行时间 2.6 years
类型 internet

技术详情

分类 Payload
质量 730.00 kg
干质量 700.00 kg
总质量 730.00 kg
长度 0.30 m
直径 4.10 m
跨度 29.00 m
形状 Box + pan
制造商 SPXS
平台类型 Starlink V2M
阶段状态 In Orbit
所有者/国家 SPXS/US

Most Searched